| time (UTC) | temp C | wind direction | speed KPH | gust KPH | rain 1hr cm | rain 24hr cm | rain mn cm | humidity % | barometer mb |
| 20260904034605 | 18 | 216 | 1.6 | 4.8 | 0.00 | 0.00 | 0.00 | 81 | 1013.1 |
| 20260904033105 | 18 | 219 | 3.2 | 8.0 | 0.00 | 0.00 | 0.00 | 80 | 1013.0 |
| 20260904031603 | 18 | 0 | 0.0 | 3.2 | 0.00 | 0.00 | 0.00 | 80 | 1012.8 |
| 20260904030103 | 18 | 0 | 0.0 | 4.8 | 0.00 | 0.00 | 0.00 | 79 | 1012.8 |
| 20260904024601 | 19 | 237 | 1.6 | 6.4 | 0.00 | 0.00 | 0.00 | 78 | 1012.8 |
| 20260904023055 | 19 | 243 | 1.6 | 6.4 | 0.00 | 0.00 | 0.00 | 78 | 1012.9 |
| 20260904021558 | 20 | 250 | 1.6 | 6.4 | 0.00 | 0.00 | 0.00 | 77 | 1012.8 |
| 20260904014606 | 20 | 265 | 3.2 | 8.0 | 0.00 | 0.00 | 0.00 | 75 | 1012.8 |
| 20260904013118 | 21 | 241 | 4.8 | 14.5 | 0.00 | 0.00 | 0.00 | 74 | 1012.9 |
| 20260904011626 | 21 | 240 | 6.4 | 14.5 | 0.00 | 0.00 | 0.00 | 72 | 1012.9 |
| 20260904010057 | 21 | 0 | 6.4 | 19.3 | 0.00 | 0.00 | 0.00 | 72 | 1013.0 |
| 20260904004600 | 22 | 250 | 8.0 | 19.3 | 0.00 | 0.00 | 0.00 | 71 | 1012.9 |
| 20260904003057 | 22 | 261 | 6.4 | 19.3 | 0.00 | 0.00 | 0.00 | 69 | 1013.0 |
| 20260904001554 | 22 | 292 | 9.7 | 19.3 | 0.00 | 0.00 | 0.00 | 70 | 1013.1 |
| 20260904000104 | 22 | 252 | 6.4 | 24.1 | 0.00 | 0.00 | 0.00 | 70 | 1013.1 |
| 20260903234557 | 22 | 253 | 8.0 | 20.9 | 0.00 | 0.00 | 0.00 | 68 | 1013.1 |
| 20260903233056 | 22 | 269 | 9.7 | 22.5 | 0.00 | 0.00 | 0.00 | 70 | 1013.2 |
| 20260903231554 | 23 | 257 | 9.7 | 20.9 | 0.00 | 0.00 | 0.00 | 71 | 1013.4 |
| 20260903230058 | 23 | 246 | 11.3 | 20.9 | 0.00 | 0.00 | 0.00 | 72 | 1013.3 |
| 20260903224601 | 23 | 360 | 9.7 | 20.9 | 0.00 | 0.00 | 0.00 | 71 | 1013.4 |
| 20260903223059 | 23 | 360 | 6.4 | 20.9 | 0.00 | 0.00 | 0.00 | 71 | 1013.5 |
| 20260903221559 | 23 | 238 | 9.7 | 19.3 | 0.00 | 0.00 | 0.00 | 71 | 1013.6 |
| 20260903220104 | 23 | 235 | 11.3 | 22.5 | 0.00 | 0.00 | 0.00 | 71 | 1013.7 |
| 20260903214610 | 23 | 268 | 12.9 | 20.9 | 0.00 | 0.00 | 0.00 | 71 | 1013.8 |
| 20260903213057 | 23 | 203 | 8.0 | 25.7 | 0.00 | 0.00 | 0.00 | 71 | 1013.8 |
| 20260903211604 | 23 | 229 | 11.3 | 25.7 | 0.00 | 0.00 | 0.00 | 70 | 1014.0 |
| 20260903210140 | 24 | 246 | 9.7 | 20.9 | 0.00 | 0.00 | 0.00 | 70 | 1014.0 |
| 20260903204606 | 24 | 360 | 8.0 | 20.9 | 0.00 | 0.00 | 0.00 | 69 | 1014.0 |
| 20260903203057 | 24 | 242 | 9.7 | 20.9 | 0.00 | 0.00 | 0.00 | 68 | 1014.2 |
| 20260903201558 | 24 | 257 | 8.0 | 19.3 | 0.00 | 0.00 | 0.00 | 69 | 1014.2 |
| 20260903200105 | 25 | 245 | 8.0 | 17.7 | 0.00 | 0.00 | 0.00 | 68 | 1014.2 |
| 20260903194559 | 24 | 227 | 6.4 | 20.9 | 0.00 | 0.00 | 0.00 | 69 | 1014.4 |
| 20260903193058 | 23 | 360 | 9.7 | 20.9 | 0.00 | 0.00 | 0.00 | 69 | 1014.4 |
| 20260903191602 | 23 | 266 | 8.0 | 19.3 | 0.00 | 0.00 | 0.00 | 70 | 1014.4 |
| 20260903190104 | 23 | 360 | 11.3 | 20.9 | 0.00 | 0.00 | 0.00 | 69 | 1014.7 |
| 20260903184603 | 23 | 229 | 9.7 | 20.9 | 0.00 | 0.00 | 0.00 | 69 | 1014.9 |
| 20260903183101 | 23 | 223 | 8.0 | 20.9 | 0.00 | 0.00 | 0.00 | 68 | 1015.2 |
| 20260903181554 | 23 | 360 | 11.3 | 19.3 | 0.00 | 0.00 | 0.00 | 69 | 1015.2 |
| 20260903180108 | 24 | 240 | 9.7 | 17.7 | 0.00 | 0.00 | 0.00 | 68 | 1015.2 |
| 20260903174558 | 24 | 226 | 6.4 | 16.1 | 0.00 | 0.00 | 0.00 | 67 | 1015.4 |
| 20260903173056 | 24 | 232 | 6.4 | 12.9 | 0.00 | 0.00 | 0.00 | 68 | 1015.2 |
| 20260903171614 | 26 | 0 | 3.2 | 11.3 | 0.00 | 0.00 | 0.00 | 63 | 1015.1 |
| 20260903170100 | 26 | 130 | 3.2 | 12.9 | 0.00 | 0.00 | 0.00 | 61 | 1015.2 |
| 20260903164604 | 25 | 148 | 6.4 | 12.9 | 0.00 | 0.00 | 0.00 | 63 | 1015.1 |
| 20260903163101 | 24 | 291 | 1.6 | 12.9 | 0.00 | 0.00 | 0.00 | 66 | 1015.2 |
| 20260903161600 | 25 | 109 | 8.0 | 12.9 | 0.00 | 0.00 | 0.00 | 65 | 1015.1 |
| 20260903160106 | 24 | 0 | 3.2 | 6.4 | 0.00 | 0.00 | 0.00 | 65 | 1015.4 |
| 20260903154606 | 23 | 82 | 3.2 | 8.0 | 0.00 | 0.00 | 0.00 | 67 | 1015.3 |
| 20260903153110 | 22 | 78 | 3.2 | 8.0 | 0.00 | 0.00 | 0.00 | 67 | 1015.5 |
| 20260903151611 | 22 | 59 | 3.2 | 9.7 | 0.00 | 0.00 | 0.00 | 68 | 1015.4 |
| 20260903150110 | 21 | 78 | 3.2 | 9.7 | 0.00 | 0.00 | 0.00 | 71 | 1015.5 |
| 20260903144601 | 20 | 55 | 3.2 | 6.4 | 0.00 | 0.00 | 0.00 | 75 | 1015.4 |
| 20260903143107 | 18 | 55 | 3.2 | 6.4 | 0.00 | 0.00 | 0.00 | 77 | 1015.2 |
| 20260903141557 | 18 | 55 | 1.6 | 6.4 | 0.00 | 0.00 | 0.00 | 79 | 1015.1 |
| 20260903140109 | 17 | 54 | 4.8 | 8.0 | 0.00 | 0.00 | 0.00 | 80 | 1014.9 |
| 20260903134601 | 17 | 51 | 3.2 | 6.4 | 0.00 | 0.00 | 0.00 | 83 | 1014.6 |
| 20260903133103 | 16 | 51 | 1.6 | 6.4 | 0.00 | 0.00 | 0.00 | 84 | 1014.5 |
| 20260903131607 | 17 | 51 | 1.6 | 4.8 | 0.00 | 0.00 | 0.00 | 84 | 1014.4 |
| 20260903130056 | 16 | 51 | 0.0 | 4.8 | 0.00 | 0.00 | 0.00 | 83 | 1014.5 |
| 20260903124600 | 16 | 51 | 0.0 | 4.8 | 0.00 | 0.00 | 0.00 | 83 | 1014.4 |
| 20260903123059 | 17 | 51 | 1.6 | 4.8 | 0.00 | 0.00 | 0.00 | 83 | 1014.4 |
| 20260903121555 | 17 | 51 | 1.6 | 6.4 | 0.00 | 0.00 | 0.00 | 83 | 1014.4 |
| 20260903114603 | 17 | 42 | 3.2 | 4.8 | 0.00 | 0.00 | 0.00 | 84 | 1014.5 |
| 20260903113058 | 16 | 42 | 4.8 | 6.4 | 0.00 | 0.00 | 0.00 | 84 | 1014.4 |
| 20260903111556 | 16 | 41 | 3.2 | 4.8 | 0.00 | 0.00 | 0.00 | 83 | 1014.5 |
| 20260903110100 | 17 | 44 | 4.8 | 6.4 | 0.00 | 0.00 | 0.00 | 83 | 1014.5 |
| 20260903104557 | 17 | 57 | 4.8 | 6.4 | 0.00 | 0.00 | 0.00 | 83 | 1014.7 |
| 20260903103059 | 17 | 63 | 4.8 | 6.4 | 0.00 | 0.00 | 0.00 | 83 | 1014.7 |
| 20260903101602 | 17 | 80 | 3.2 | 4.8 | 0.00 | 0.00 | 0.00 | 82 | 1014.9 |
| 20260903100056 | 17 | 84 | 3.2 | 4.8 | 0.00 | 0.00 | 0.00 | 82 | 1015.0 |
| 20260903094634 | 17 | 85 | 1.6 | 4.8 | 0.00 | 0.00 | 0.00 | 82 | 1015.2 |
| 20260903093054 | 17 | 86 | 1.6 | 6.4 | 0.00 | 0.00 | 0.00 | 83 | 1015.3 |
| 20260903091601 | 17 | 86 | 1.6 | 4.8 | 0.00 | 0.00 | 0.00 | 82 | 1015.4 |
| 20260903090052 | 18 | 86 | 3.2 | 6.4 | 0.00 | 0.00 | 0.00 | 82 | 1015.3 |
| 20260903084600 | 18 | 88 | 4.8 | 9.7 | 0.00 | 0.00 | 0.00 | 82 | 1015.4 |
| 20260903083057 | 18 | 109 | 3.2 | 6.4 | 0.00 | 0.00 | 0.00 | 82 | 1015.5 |
| 20260903081555 | 18 | 112 | 1.6 | 4.8 | 0.00 | 0.00 | 0.00 | 82 | 1015.5 |
| 20260903080101 | 18 | 112 | 1.6 | 9.7 | 0.00 | 0.00 | 0.00 | 82 | 1015.5 |
| 20260903074607 | 18 | 208 | 1.6 | 4.8 | 0.00 | 0.00 | 0.00 | 82 | 1015.6 |
| 20260903073102 | 18 | 230 | 1.6 | 3.2 | 0.00 | 0.00 | 0.00 | 82 | 1015.5 |
| 20260903071602 | 18 | 231 | 1.6 | 4.8 | 0.00 | 0.00 | 0.00 | 82 | 1015.6 |
| 20260903070057 | 18 | 0 | 0.0 | 3.2 | 0.00 | 0.00 | 0.00 | 81 | 1015.5 |
| 20260903064608 | 18 | 233 | 1.6 | 3.2 | 0.00 | 0.00 | 0.00 | 81 | 1015.7 |
| 20260903063102 | 18 | 234 | 0.0 | 3.2 | 0.00 | 0.00 | 0.00 | 81 | 1015.6 |
| 20260903061601 | 18 | 0 | 0.0 | 3.2 | 0.00 | 0.00 | 0.00 | 81 | 1015.7 |
| 20260903060105 | 19 | 234 | 0.0 | 3.2 | 0.00 | 0.00 | 0.00 | 80 | 1015.8 |
| 20260903054613 | 18 | 236 | 0.0 | 1.6 | 0.00 | 0.00 | 0.00 | 80 | 1015.9 |
| 20260903053107 | 18 | 0 | 0.0 | 1.6 | 0.00 | 0.00 | 0.00 | 81 | 1016.0 |
| 20260903051604 | 18 | 0 | 0.0 | 0.0 | 0.00 | 0.00 | 0.00 | 80 | 1016.0 |
| 20260903050106 | 18 | 0 | 0.0 | 0.0 | 0.00 | 0.00 | 0.00 | 80 | 1016.0 |
| 20260903044602 | 19 | 0 | 0.0 | 3.2 | 0.00 | 0.00 | 0.00 | 81 | 1015.9 |
| 20260903043105 | 18 | 0 | 0.0 | 0.0 | 0.00 | 0.00 | 0.00 | 81 | 1015.9 |
| 20260903041609 | 18 | 0 | 0.0 | 0.0 | 0.00 | 0.00 | 0.00 | 79 | 1015.8 |
| 20260903040126 | 19 | 0 | 0.0 | 0.0 | 0.00 | 0.00 | 0.00 | 79 | 1015.7 |